Regional Weather Roundup
Issued by NWS New Orleans/Baton Rouge, LA

Home | Current Version | Previous Version | Text Only | Print | Product List | Glossary On
Versions: 1 2 3 4 5 6 7 8 9 10 11 12 13 14 15 16 17 18 19 20 21 22 23 24 25 26 27 28 29 30 31 32 33 34 35 36 37 38 39 40 41 42 43 44 45 46 47 48 49 50
000
ASUS44 KLIX 300512
RWRLIX
NEW ORLEANS REGIONAL WEATHER ROUNDUP
NATIONAL WEATHER SERVICE NEW ORLEANS LA
1200 AM CDT TUE JUN 30 2015

NOTE: "FAIR" INDICATES FEW OR NO CLOUDS BELOW 12,000 FEET WITH NO
      SIGNIFICANT WEATHER AND/OR OBSTRUCTIONS TO VISIBILITY.
      SKY/WX - SKY CONDITION AND SIGNIFICANT WEATHER.
      TMP - AIR TEMPERATURE.     DP    - DEWPOINT TEMPERATURE.
      RH  - RELATIVE HUMIDITY.   PRES  - PRESSURE.
      HI  - HEAT INDEX.          WCI   - WIND CHILL INDEX.

*  THESE STATIONS ARE NOT NWS OR FAA STATIONS AND ARE NOT UNDER
   NWS QUALITY CONTROL.

LAZ038-040-048-061>063-065>067-069-300600-
SOUTHEAST LOUISIANA

CITY           SKY/WX    TMP DP  RH WIND       PRES   REMARKS
N.O. AUDUBON     N/A     81  76  85 MISG        N/A
N.O. INTL ARPT MOCLDY    79  74  84 SW9       30.04R
N.O. LAKEFRONT PTCLDY    84  75  74 SW16      30.04R
N.O. DOWNTOWN*   N/A     82  73  74 SW5       30.06R
RESERVE*       NOT AVBL
SLIDELL        PTCLDY    82  77  84 VRB5      30.02R
BATON ROUGE    LGT RAIN  70  67  90 CALM      30.08R
BOOTHVILLE     PTCLDY    83  76  79 SW12      30.05R
BELLE CHASSE   PTCLDY    78  74  87 W5        30.04R
BOGALUSA*        N/A     80  73  80 W6        30.03R
GALLIANO*      PTCLDY    81  76  83 W5        30.06R
NEW ROADS*     TSTM     N/A N/A N/A N5        30.09R
GONZALES*      MOCLDY    78  74  86 N8        30.06R
HAMMOND*       MOCLDY    75  66  73 W8        30.07S
HOUMA*         MOCLDY    78  75  92 W3        30.05R
PORT FOURCHON* CLEAR     82  75  78 SW7       30.06R

$$

MSZ070-080>082-300600-
SOUTHERN MISSISSIPPI

CITY           SKY/WX    TMP DP  RH WIND       PRES   REMARKS
MCCOMB         LGT RAIN  69  69 100 S6        30.03R
GULFPORT       CLEAR     75  72  90 CALM      30.02R
BILOXI         CLEAR     79  76  89 SW5       30.02R
PASCAGOULA     CLEAR     73  72  96 CALM      30.03S

$$

COASTAL OBSERVATIONS
LAKE AND NEARSHORE STATIONS

STATION/POSITION TIME  TEMP    WIND        PRES    WAVE
                       AIR SEA DIR/SP/G            HT/PER
                 (UTC) (F)     (DEG/KT/KT) (MB)    (FT/S)
PASCAGOULA       0400   82     180/  4/  7 1016.3
WAVELAND YACHT   0400   80 84  220/  4/  6 1016.5
GRAND ISLE       0400   83 85  250/  7/ 10 1017.6
SOUTHWEST PASS   0400   83 83  240/ 17/ 18 1017.9
NEW CANAL        0400   82 85  240/  7/ 12 1016.3
SHELL BEACH      0400   81 84  230/ 12/ 15 1016.2

OFFSHORE STATIONS

STATION/POSITION TIME  TEMP    WIND        PRES    WAVE
                       AIR SEA DIR/SP/G            HT/PER
                 (UTC) (F)     (DEG/KT/KT) (MB)    (FT/S)
64 S DAUPHIN ISL 0450   83 83  250/ 12/ 14 1018.1    3/ 4

$$




USA.gov is the U.S. government's official web portal to all federal, state and local government web resources and services.